Volver al catálogo

COSMOS 2226

ActivoMilitarLEO
NORAD 22282·PAYLOAD·🇷🇺 Russia

Lanzado Dec 22, 1992 desde Plesetsk Cosmodrome

Loading…

Próximos Pases (próximas 24 horas)

TLE

ActualizadoSource: Space-Track

Época: Sep 14, 2026, 05:13 UTC

1 22282U 92092A   26257.21745152  .00000003  00000-0  15223-3 0  9996
2 22282  73.6284 346.4192 0030033 259.3183 126.1939 12.41306540528256

Sigue COSMOS 2226 en tiempo real con AllMySat

Download on the App Store